Location: Niverville
(49.6028°N, 97.0419°W)
Time: 00:04:49
(UTC-05:00)

Daily predictions for brighter satellites

Satellite Brightness Start Highest point End
(mag) Time Altitude Azimuth Time Altitude Azimuth Time Altitude Azimuth
Cosmos 1408 Rocket 4.4 00:00:49 10° N 00:04:12 49° N 00:04:12 49° N
Cosmos 540 Rocket 4.1 00:05:22 46° W 00:06:17 52° WNW 00:11:20 10° NNE
Cosmos 1891 Rocket 4.4 00:06:14 75° SE 00:06:37 78° E 00:13:04 10° NNE
Cosmos 921 Rocket 4.1 00:03:40 10° NNW 00:06:56 42° NNE 00:06:56 42° NNE
Meteor 1-22 Rocket 4.2 00:11:24 83° NE 00:11:24 83° NE 00:16:54 10° NNE
SL-16 R/B 2.9 00:09:53 33° WSW 00:12:08 52° NW 00:17:42 10° NNE
Cosmos 1844 Rocket 2.7 00:12:47 10° NNW 00:18:06 70° NE 00:18:06 70° NE
Cosmos 1844 4.0 00:13:15 10° NNW 00:18:53 58° NE 00:18:53 58° NE
Cosmos 2360 Rocket 2.2 00:27:34 75° NNE 00:27:34 75° NNE 00:32:46 10° NNE
Cosmos 1980 Rocket 4.5 00:23:10 10° W 00:27:33 22° NW 00:31:58 10° N
Cosmos 1655 Rocket 4.4 00:31:35 10° N 00:37:45 49° ENE 00:37:52 49° ENE
H-2A R/B 4.0 00:39:08 17° W 00:39:25 17° W 00:42:36 10° NW
In-Cosmos 22 4.4 00:36:41 10° NNW 00:41:33 62° WNW 00:41:33 62° WNW
CZ-4B R/B 4.1 00:45:49 21° N 00:45:49 21° N 00:47:09 10° N
Cosmos 2219 Rocket 3.5 00:49:27 30° ENE 00:49:27 30° ENE 00:52:43 10° NE
Lacrosse 4 Rocket 3.3 00:51:01 28° NNE 00:51:01 28° NNE 00:53:14 10° NNE
Cosmos 2034 Rocket 4.2 00:48:37 56° W 00:49:02 58° WNW 00:55:11 10° N
Cosmos 2263 Rocket 4.1 00:45:31 10° WNW 00:48:52 18° W 00:48:52 18° W
Cosmos 1818 4.2 00:50:01 10° NNW 00:55:22 49° NE 00:55:23 49° NE
Cosmos 1953 4.3 01:00:55 28° N 01:00:55 28° N 01:03:00 10° N
Cosmos 1092 Rocket 4.1 00:53:20 10° NNW 00:59:32 68° W 00:59:32 68° W
Cosmos 2322 Rocket 4.0 00:56:07 13° W 01:00:06 26° NW 01:04:50 10° NNE
Cosmos 2322 4.2 01:02:39 53° WNW 01:02:56 53° NW 01:08:33 10° NNE
SL-16 R/B 4.3 01:05:24 15° ENE 01:05:24 15° ENE 01:07:17 10° ENE
Cosmos 2056 Rocket 4.0 00:59:58 10° NNW 01:04:19 58° N 01:04:19 58° N
Cosmos 1634 Rocket 4.0 01:05:51 78° NE 01:05:51 78° NE 01:11:53 10° N
Cosmos 2297 4.3 01:01:22 10° NNW 01:06:57 48° NE 01:07:02 48° ENE
Cosmos 2237 Rocket 3.5 01:08:50 30° ENE 01:08:50 30° ENE 01:12:17 10° NE
Cosmos 2333 Rocket 3.3 01:09:43 35° ENE 01:09:43 35° ENE 01:13:32 10° NE
ATLAS 3B R/B 3.6 01:10:14 39° E 01:10:14 39° E 01:16:00 10° NE
ATLAS CENTAUR R/B 4.2 01:07:18 10° NNW 01:10:27 18° NNE 01:13:15 11° ENE
COSMOS 2455 3.6 01:22:56 41° ENE 01:22:56 41° ENE 01:27:14 10° NE
Cosmos 2279 Rocket 4.1 01:22:21 63° ENE 01:22:21 63° ENE 01:28:02 10° NNE
COSMOS 2428 3.0 01:25:00 64° NNW 01:25:00 64° NNW 01:30:12 10° NNE
H-2A R/B 4.3 01:27:20 10° NNE 01:29:25 29° N 01:29:25 29° N
Cosmos 2278 Rocket 2.9 01:32:30 10° NW 01:36:40 46° WNW 01:36:40 46° WNW
Cosmos 2266 Rocket 4.3 01:33:11 10° N 01:39:29 57° ENE 01:39:44 57° E
Cosmos 2221 4.2 01:41:50 32° NNE 01:41:50 32° NNE 01:44:19 10° NNE
Cosmos 2026 Rocket 4.4 01:44:01 10° NNW 01:49:20 49° WNW 01:49:20 49° WNW
CZ-2C R/B 3.8 01:55:09 45° NNW 01:55:09 45° NNW 01:58:41 10° NNW
CZ-2C R/B 2.9 01:55:58 10° NNE 02:00:54 68° NNW 02:00:54 68° NNW
USA 238 DEB 4.3 02:05:39 44° ESE 02:05:39 44° ESE 02:11:49 10° NE
Cosmos 1452 Rocket 4.1 01:59:55 10° NNW 02:03:52 51° NNW 02:03:52 51° NNW
USA 238 4.3 02:05:46 43° ESE 02:05:46 43° ESE 02:11:55 10° NE
Meteor 2-20 Rocket 4.4 02:01:42 10° NNW 02:07:26 74° NW 02:07:26 74° NW
Cosmos 2360 Rocket 4.2 02:09:18 16° WNW 02:11:54 22° NW 02:16:15 10° N
NOSS 0 Rocket 3.9 02:12:08 74° NW 02:12:08 74° NW 02:18:16 10° NNE
Cosmos 2369 Rocket 3.7 02:15:42 10° NNW 02:20:42 32° NE 02:24:37 15° ESE
Exosat Rocket 3.8 02:22:39 10° NNW 02:27:01 68° NNW 02:27:01 68° NNW
Lacrosse 4 Rocket 3.8 02:27:21 18° NW 02:28:10 18° NW 02:31:21 10° N
Cosmos 2219 Rocket 3.0 02:31:10 41° WNW 02:31:29 42° NW 02:36:49 10° NNE
Aureole 2 Rocket 4.3 02:39:17 37° NNE 02:39:17 37° NNE 02:42:00 10° NNE
Cosmos 1943 Rocket 4.4 02:35:03 10° NNW 02:39:35 24° NE 02:44:05 10° E
Cosmos 1626 4.4 02:36:14 10° NNW 02:37:45 23° NNW 02:37:45 23° NNW
Cosmos 1437 Rocket 4.4 02:41:58 34° N 02:41:58 34° N 02:44:27 10° N
SL-16 R/B 2.1 02:47:17 84° NNE 02:47:17 84° NNE 02:52:51 10° NNE
ATLAS CENTAUR R/B 2.6 02:46:05 10° NW 02:49:29 43° N 02:49:29 43° N
Cosmos 2237 Rocket 2.8 02:50:39 44° WNW 02:51:05 44° NW 02:56:34 10° NNE
Cosmos 2333 Rocket 3.1 02:51:43 38° WNW 02:52:26 40° NW 02:57:53 10° NNE
Cosmos 2228 Rocket 3.9 02:58:01 48° NNW 02:58:01 48° NNW 03:01:32 10° N
ATLAS 3B R/B 3.1 02:57:28 45° W 02:59:45 64° NW 03:07:01 10° NE
Cosmos 1932 4.5 03:00:59 63° W 03:01:47 71° NW 03:08:10 10° NE
Cosmos 1515 Rocket 4.2 03:04:15 51° N 03:04:15 51° N 03:07:34 10° N
CZ-4C R/B 2.1 03:06:22 76° SE 03:06:31 77° SE 03:12:43 10° NE
Cosmos 1869 Rocket 4.4 03:02:50 10° N 03:07:08 47° ENE 03:07:15 47° E
COSMOS 2455 3.7 03:06:03 35° WNW 03:07:32 40° NW 03:13:14 10° NNE
Cosmos 1340 Rocket 3.9 03:03:55 10° N 03:06:56 44° NNE 03:06:56 44° NNE
ATLAS 5 CENTAUR R/B 4.0 03:15:17 14° ESE 03:16:07 15° ESE 03:18:51 10° ENE
S3M 4.1 03:15:04 53° SSE 03:16:31 70° E 03:22:49 10° NNE
Cosmos 1908 4.4 03:19:04 38° NNW 03:19:04 38° NNW 03:21:41 10° N
Cosmos 1048 Rocket 3.9 03:23:05 79° WSW 03:23:22 84° WNW 03:28:46 10° NNE
Meteor 2-2 Rocket 4.2 03:23:53 67° SW 03:24:37 78° WNW 03:30:33 10° N
SL-16 R/B 3.1 03:23:32 17° SE 03:28:16 56° ENE 03:34:20 10° N
In-Cosmos 22 Rocket 4.1 03:24:13 10° N 03:29:33 77° ENE 03:30:46 54° SSE
Cosmos 1603 3.6 03:29:09 67° S 03:29:56 81° ESE 03:35:43 10° NNE
Cosmos 1745 Rocket 3.9 03:28:51 10° NNW 03:35:14 79° W 03:36:57 51° S
Cosmos 1553 Rocket 3.8 03:34:00 56° S 03:35:26 88° W 03:41:34 10° N
IRS-P3 Rocket 4.5 03:33:49 10° NNE 03:39:13 84° WNW 03:40:01 65° SSW
Cosmos 1331 Rocket 3.9 03:34:03 10° NNW 03:39:21 82° WSW 03:40:12 63° S
Cosmos 1892 3.9 03:35:43 10° N 03:39:22 39° ENE 03:40:10 35° ESE
IRS-P3 4.0 03:34:30 10° NNE 03:39:51 73° WNW 03:40:34 63° SW
SL-08 R/B 3.7 03:40:45 47° WNW 03:40:45 47° WNW 03:44:36 10° NNW
CZ-2D R/B 3.4 03:36:23 10° NNE 03:41:11 33° E 03:43:49 21° SE
SL-08 R/B 4.5 03:37:07 10° NNW 03:43:07 60° W 03:44:07 53° SW
ARIANE 5 R/B 3.4 03:38:21 10° NNE 03:43:22 44° E 03:45:27 30° SSE
Cosmos 1726 2.5 03:45:18 63° NE 03:45:18 63° NE 03:48:34 10° NNE
ERBS 3.2 03:47:55 50° NNE 03:47:55 50° NNE 03:50:45 10° NE
Cosmos 1269 Rocket 4.4 03:46:39 45° W 03:47:21 48° WNW 03:52:31 10° NNE
USA 234 4.1 03:42:28 10° ENE 03:48:26 36° SE 03:50:41 29° S
SeaSat 1 3.8 03:44:19 10° ESE 03:48:53 39° NE 03:53:27 10° NNW
Cosmos 1867 4.1 03:48:02 42° W 03:49:22 51° NW 03:54:44 10° NNE
ADEOS 3.7 03:44:28 10° NNE 03:49:43 70° ESE 03:51:11 47° S
TELKOM 3 4.3 03:49:48 82° WNW 03:49:58 88° N 03:55:57 10° E
Meteor 2-3 Rocket 3.7 03:45:32 10° NNW 03:51:20 85° W 03:53:32 40° S
Cosmos 1151 Rocket 3.7 03:51:59 42° WNW 03:51:59 42° WNW 03:55:51 10° N
Cosmos 1707 Rocket 3.6 03:52:03 66° SSE 03:52:37 77° E 03:57:06 10° NNE
Cosmos 1607 4.4 03:52:11 36° W 03:54:19 51° NW 04:00:20 10° NE
Cosmos 158 Rocket 3.8 03:53:50 63° SW 03:54:36 77° WNW 03:59:36 10° NNE
USA 238 DEB 4.1 03:53:05 34° WSW 03:56:06 58° NW 04:03:04 10° NE
USA 238 4.1 03:53:12 34° WSW 03:56:12 58° NW 04:03:09 10° NE
AQUA 3.8 03:52:22 10° N 03:57:07 67° WNW 03:57:43 60° WSW
Cosmos 1943 3.4 03:56:53 41° S 03:58:44 64° ESE 04:04:20 10° NNE
Cosmos 1300 2.9 04:00:59 58° NW 04:00:59 58° NW 04:04:27 10° N
NPP 3.8 03:56:40 10° N 04:01:58 57° WNW 04:03:10 46° WSW
Cosmos 2369 Rocket 2.2 03:59:33 10° NW 04:05:02 55° WSW 04:06:18 45° SSW
UNK 3.7 04:03:38 39° SSE 04:05:22 86° ENE 04:10:00 10° NNW
Meteor 1-4 Rocket 3.7 04:08:10 32° NW 04:08:10 32° NW 04:10:41 10° N
NOSS 3-2 (A) 3.5 04:08:07 41° SW 04:10:33 83° NW 04:17:26 10° NE
Resurs 1-4 Rocket 2.5 04:06:45 10° NNE 04:11:59 60° E 04:14:50 27° S
Cosmos 2292 Rocket 3.0 04:09:34 10° N 04:12:13 66° NNE 04:12:13 66° NNE
Cosmos 1455 3.2 04:12:01 30° SE 04:13:29 45° E 04:17:14 10° NNE
Cosmos 1356 Rocket 4.2 04:12:54 10° NNW 04:15:54 34° WNW 04:15:54 34° WNW
Abrixas rocket 2.6 04:18:07 54° ESE 04:18:07 54° ESE 04:20:52 10° E
Okean O Rocket 3.6 04:17:45 10° NE 04:21:31 26° E 04:25:15 10° SSE
Cosmos 883 Rocket 4.4 04:19:45 33° SSW 04:22:43 77° W 04:28:54 10° N
Cosmos 1943 Rocket 2.1 04:18:21 10° NNW 04:24:05 84° WSW 04:29:44 10° SSE
CENTAUR R/B 3.7 04:20:07 17° S 04:24:14 36° ESE 04:30:26 10° NE
Cosmos 2251 Rocket 3.5 04:23:20 40° SW 04:25:09 67° WNW 04:30:25 10° NNE
Cosmos 1271 Rocket 3.7 04:25:58 33° WNW 04:26:05 33° WNW 04:29:47 10° N
NOSS 3-2 (C) 3.5 04:25:12 34° SW 04:28:13 79° NW 04:35:09 10° NE
Cosmos 1408 4.2 04:26:39 10° N 04:30:07 35° ENE 04:33:35 10° SE
SL-16 R/B 3.9 04:29:10 16° WNW 04:32:04 22° NW 04:36:28 10° N
ERS-2 2.3 04:30:54 10° N 04:34:34 58° WNW 04:35:15 48° WSW
Cosmos 2285 Rocket 4.3 04:29:19 10° NNW 04:35:48 72° ENE 04:42:10 10° SSE
Sich 1 Rocket 4.0 04:32:10 10° N 04:36:32 63° ENE 04:40:54 10° SSE
Cosmos 2237 Rocket 4.5 04:33:52 10° WNW 04:36:44 14° NNW 04:39:36 10° N
Cosmos 2315 Rocket 3.9 04:36:03 23° SSW 04:40:10 79° W 04:46:30 10° N
MTI 3.8 04:39:13 27° SSE 04:40:55 88° ENE 04:44:17 10° NNW
Cosmos 1825 3.0 04:40:32 10° N 04:44:16 51° ENE 04:47:58 10° SSE
Meteor 2-11 Rocket 4.4 04:43:10 20° SSW 04:47:35 81° W 04:53:43 10° N
ATLAS 3B R/B 4.3 04:45:23 10° WNW 04:51:52 30° NNW 04:58:04 10° NE
Cosmos 1656 Rocket 3.6 04:47:50 10° NNW 04:53:18 82° ENE 04:58:43 10° SSE
Cosmos 494 Rocket 4.3 04:51:21 27° SW 04:54:00 52° WNW 04:59:10 10° NNE
CZ-4C R/B 3.5 04:51:33 16° W 04:55:40 35° NNW 05:01:35 10° NE
ATLAS 5 CENTAUR R/B 1.9 04:56:50 24° SW 04:59:51 82° SE 05:05:15 10° NE
Cosmos 2242 Rocket 4.2 04:59:33 26° SW 05:01:33 40° WNW 05:05:53 10° N
Cosmos 1862 Rocket 3.5 04:58:47 20° SSW 05:01:44 74° WNW 05:06:10 10° N
Meteor 2-10 4.4 05:01:39 22° SW 05:04:57 48° WNW 05:10:09 10° N
UNKNOWN OBJECT B 2.9 05:06:36 10° N 05:10:13 51° WNW 05:12:20 22° SW
Cosmos 1862 3.2 05:06:43 10° NNW 05:10:42 74° W 05:14:39 10° S
BREEZE-M DEB (TANK) 2.8 05:07:03 16° WSW 05:12:06 71° NNW 05:14:59 10° ENE
EO 1 Del DPAF 4.2 05:10:44 23° SW 05:12:07 29° W 05:15:35 10° NW
SL-16 R/B 3.3 05:08:38 18° SW 05:12:14 30° W 05:17:39 10° NNW
Okean 2 Rocket 3.7 05:07:55 10° N 05:12:24 60° ENE 05:16:52 10° SSE
Cosmos 1184 Rocket 3.8 05:11:54 10° NNW 05:14:53 28° W 05:15:55 24° SW
Cosmos 1892 4.2 05:12:10 10° NW 05:14:54 19° W 05:15:13 18° W
IRS-1D 4.2 05:10:12 10° N 05:14:59 38° WNW 05:18:23 18° WSW
USA 129 4.2 05:15:12 10° ESE 05:16:15 18° ENE 05:17:26 10° NNE
CZ-2C R/B 3.7 05:15:50 10° S 05:20:12 58° W 05:24:36 10° NNW
Cosmos 1726 4.4 05:19:58 11° WNW 05:20:43 11° WNW 05:21:56 10° NW
CZ-2D R/B 2.7 05:16:25 10° N 05:21:20 40° WNW 05:25:09 16° SW
Cosmos 1733 Rocket 4.0 05:18:19 10° NNW 05:22:03 28° W 05:24:38 16° SW
ARIANE 5 R/B 3.5 05:17:44 10° N 05:22:21 32° WNW 05:25:47 16° WSW
Cosmos 1869 3.8 05:20:27 18° SW 05:23:00 41° WNW 05:26:47 10° N
Nadezhda 1 Rocket 4.1 05:17:59 10° S 05:24:16 83° E 05:30:41 10° N
ERBS 4.2 05:21:31 10° WNW 05:24:32 26° N 05:27:34 10° NE
Cosmos 389 Rocket 2.8 05:23:17 18° SW 05:25:39 47° WNW 05:29:05 10° N
SeaSat 1 2.8 05:21:45 10° S 05:26:23 41° WSW 05:31:04 10° NW
Cosmos 1782 Rocket 3.4 05:27:17 10° NNW 05:31:39 74° W 05:35:58 10° S
USA 234 3.3 05:25:18 10° ENE 05:31:54 86° NNW 05:38:01 12° WSW
CZ-4B R/B 2.6 05:29:55 10° NNE 05:33:36 89° ESE 05:37:21 10° SSW
Cosmos 1933 3.4 05:30:35 10° SSW 05:34:40 64° WNW 05:38:46 10° N
Cosmos 1943 4.4 05:38:43 12° WSW 05:43:14 29° NW 05:48:09 10° NNE
Cosmos 2074 Rocket 4.4 05:38:56 10° NNW 05:44:43 42° W 05:50:30 10° SSW
CZ-2D R/B 4.4 05:42:18 10° N 05:46:17 33° WNW 05:50:10 10° SW
COSMOS 2487 3.4 05:43:28 10° S 05:46:58 49° ESE 05:50:29 10° NNE
COSMOS 2406 3.3 05:41:24 10° SSW 05:47:11 80° WNW 05:52:59 10° NNE
Cosmos 2369 4.4 05:42:03 10° NNW 05:47:45 62° ENE 05:53:25 10° SE
Cosmos 2154 Rocket 4.0 05:42:38 10° NNW 05:48:57 74° W 05:55:16 10° S
Cosmos 1455 3.9 05:47:05 11° WSW 05:49:29 18° WNW 05:52:13 10° NNW
Cosmos 2184 Rocket 4.5 05:44:05 10° NNW 05:49:59 40° W 05:55:50 10° SSW
CZ-3A R/B 3.3 05:46:00 10° WNW 05:50:30 48° N 05:55:11 10° E
Resurs 1-4 Rocket 3.4 05:47:17 10° N 05:51:28 25° WNW 05:55:38 10° WSW
Cosmos 1908 Rocket 4.4 05:48:05 10° NNW 05:51:53 29° W 05:55:39 10° SSW
Cosmos 1174 4.1 05:48:35 10° SW 05:53:47 83° NW 05:57:53 10° NE
CZ-4B R/B 3.2 05:48:31 10° N 05:53:48 65° WNW 05:59:01 10° SSW
CZ-4B DEB 4.2 05:48:52 10° NNE 05:54:20 70° WNW 05:59:45 10° SSW
Abrixas rocket 3.0 05:51:17 10° W 05:54:21 34° SSW 05:57:25 10° SE
Okean O Rocket 2.2 05:53:50 10° N 05:58:02 40° WNW 06:02:12 10° SW
Cosmos 1190 Rocket 4.0 05:53:21 10° SSW 05:58:33 90° E 06:03:47 10° NNE
Aureole 3 Rocket 3.7 05:53:36 10° SSW 05:59:59 64° W 06:04:31 10° N
COSMO-SKYMED 1 4.2 05:56:05 10° SE 06:00:09 40° ENE 06:04:13 10° N
ADEOS Rocket 3.8 05:53:13 10° NNE 06:00:59 86° ESE 06:08:46 10° SSW
ADEOS II 2.3 05:59:02 10° NNE 06:04:20 80° ESE 06:09:36 10° SSW
SL-27 R/B 3.6 06:01:19 10° WSW 06:04:32 29° WNW 06:07:46 10° N
Thor Agena Rocket 4.0 05:59:57 10° SSW 06:04:46 40° W 06:09:42 10° NNW
Meteor 2-10 Rocket 4.3 05:59:05 10° S 06:04:48 65° E 06:10:25 10° NNE
Cosmos 2221 Rocket 3.9 06:00:42 10° SSW 06:04:58 47° WNW 06:09:16 10° N
Cosmos 1408 4.1 06:02:20 10° NW 06:05:07 20° W 06:07:53 10° SW
Okean-O 2.7 06:00:48 10° NNE 06:05:17 89° ESE 06:09:44 10° SSW
Cosmos 1356 4.3 06:01:47 10° N 06:05:18 58° ENE 06:08:48 10° SSE
Cosmos 1943 Rocket 3.7 06:03:51 10° WNW 06:06:57 15° W 06:10:02 10° SW
Cosmos 2341 Rocket 4.1 06:05:38 10° NNW 06:11:50 64° W 06:18:04 10° S
